Weather History for Champaign, IL

Change the Weather History Date:

Tuesday, October 1, 2013

  Actual Average Record
Temperature  
Mean Temperature 72 °F 59 °F  
Max Temperature 83 °F 72 °F 88 °F (2002)
Min Temperature 61 °F 47 °F 34 °F (2003)
Degree Days  
Heating Degree Days 0 7  
Month to date heating degree days 0 7  
Since 1 July heating degree days 43 99  
Cooling Degree Days 7 2  
Month to date cooling degree days 7 2  
Year to date cooling degree days 1029 927  
Growing Degree Days 21 (Base 50)    
Moisture  
Dew Point 63 °F    
Average Humidity 77    
Maximum Humidity 100    
Minimum Humidity 54    
Precipitation  
Precipitation 0.00 in 0.10 in 0.10 in (2007)
Month to date precipitation 0.00 0.10  
Year to date precipitation 24.76 30.66  
Sea Level Pressure  
Sea Level Pressure 30.00 in    
Wind  
Wind Speed 9 mph (SSW)    
Max Wind Speed 16 mph    
Max Gust Speed 21 mph    
Visibility 10 miles    
Events      
T = Trace of Precipitation, MM = Missing Value Source: NWS Daily Summary

Daily Weather History Graph

Daily Weather History Graph

Search for Another Location

Airport:

Trip Planner

Search our weather history database for the weather conditions in past years. The results will help you decide how hot, cold, wet, or windy it might be!

Date:

Astronomy

Oct. 01, 2013 Rise Set
Actual Time 6:49 AM CDT 6:34 PM CDT
Civil Twilight 6:22 AM CDT 7:01 PM CDT
Nautical Twilight 5:51 AM CDT 7:33 PM CDT
Astronomical Twilight 5:19 AM CDT 8:04 PM CDT
Moon 3:23 AM CDT (10/1) 4:38 PM CDT (10/1)
Length of Visible Light 12h 39m
Length of Day
11h 45m
Waning Crescent, 12% of the Moon is Illuminated
Oct 1
Waning Crescent
Oct 4
New
Oct 11
First Quarter
Oct 18
Full
Oct 26
Last Quarter

Hourly Weather History & Observations

Time (CDT) Temp. Heat Index Dew Point Humidity Pressure Visibility Wind Dir Wind Speed Gust Speed Precip Events Conditions
12:53 AM 62.1 °F - 61.0 °F 96% 29.96 in 10.0 mi South 8.1 mph - N/A   Clear
1:18 AM 62.6 °F - 60.8 °F 94% 29.97 in 9.0 mi South 6.9 mph - N/A   Scattered Clouds
1:29 AM 60.8 °F - 60.8 °F 100% 29.97 in 9.0 mi South 8.1 mph - N/A   Mostly Cloudy
1:53 AM 63.0 °F - 61.0 °F 93% 29.97 in 9.0 mi SSW 10.4 mph - N/A   Overcast
2:53 AM 64.0 °F - 62.1 °F 93% 29.96 in 10.0 mi SSW 10.4 mph 18.4 mph N/A   Overcast
3:16 AM 64.4 °F - 62.6 °F 94% 29.98 in 10.0 mi SSW 9.2 mph - N/A   Overcast
3:53 AM 64.0 °F - 62.1 °F 93% 29.97 in 10.0 mi SSW 8.1 mph - N/A   Overcast
4:34 AM 64.4 °F - 62.6 °F 94% 29.99 in 10.0 mi SSW 6.9 mph - N/A   Overcast
4:53 AM 64.9 °F - 62.1 °F 90% 29.98 in 10.0 mi SSW 6.9 mph - N/A   Overcast
5:32 AM 64.4 °F - 62.6 °F 94% 30.01 in 10.0 mi South 4.6 mph - N/A   Overcast
5:53 AM 64.9 °F - 62.1 °F 90% 30.00 in 10.0 mi South 4.6 mph - N/A   Overcast
6:53 AM 64.0 °F - 62.1 °F 93% 30.02 in 10.0 mi South 6.9 mph - N/A   Overcast
7:53 AM 64.9 °F - 62.1 °F 90% 30.03 in 10.0 mi South 8.1 mph - N/A   Overcast
8:40 AM 66.2 °F - 62.6 °F 88% 30.04 in 10.0 mi SSW 10.4 mph - N/A   Overcast
8:53 AM 66.9 °F - 62.1 °F 84% 30.04 in 10.0 mi SSW 11.5 mph - N/A   Overcast
9:53 AM 69.1 °F - 62.1 °F 78% 30.05 in 10.0 mi SSW 11.5 mph - N/A   Overcast
10:53 AM 70.0 °F - 63.0 °F 78% 30.04 in 10.0 mi SSW 10.4 mph - N/A   Overcast
11:32 AM 71.6 °F - 62.6 °F 73% 30.04 in 10.0 mi SSW 10.4 mph - N/A   Overcast
11:53 AM 72.0 °F - 63.0 °F 73% 30.03 in 10.0 mi SSW 11.5 mph - N/A   Overcast
12:53 PM 75.0 °F - 63.0 °F 66% 30.02 in 10.0 mi SSW 9.2 mph - N/A   Overcast
1:40 PM 80.6 °F 82.3 °F 64.4 °F 58% 30.01 in 10.0 mi SSW 10.4 mph - N/A   Scattered Clouds
1:53 PM 79.0 °F - 64.0 °F 60% 29.99 in 10.0 mi SSW 11.5 mph 19.6 mph N/A   Scattered Clouds
2:53 PM 82.0 °F 83.4 °F 64.0 °F 54% 29.98 in 10.0 mi SW 12.7 mph - N/A   Mostly Cloudy
3:53 PM 81.0 °F 82.2 °F 63.0 °F 54% 29.97 in 10.0 mi SW 12.7 mph 20.7 mph N/A   Scattered Clouds
4:53 PM 79.0 °F - 64.9 °F 62% 29.97 in 10.0 mi SSW 13.8 mph - N/A   Clear
5:53 PM 75.0 °F - 64.9 °F 71% 29.98 in 10.0 mi SSW 11.5 mph - N/A   Clear
6:53 PM 71.1 °F - 64.9 °F 81% 29.99 in 10.0 mi SW 8.1 mph - N/A   Clear
7:53 PM 66.0 °F - 63.0 °F 90% 30.01 in 10.0 mi SSW 5.8 mph - N/A   Clear
8:53 PM 64.9 °F - 63.0 °F 93% 30.01 in 10.0 mi SSW 5.8 mph - N/A   Clear
9:53 PM 64.0 °F - 63.0 °F 96% 30.01 in 10.0 mi SSW 4.6 mph - N/A   Clear
10:53 PM 62.1 °F - 61.0 °F 96% 30.02 in 6.0 mi SSW 3.5 mph - N/A   Clear
11:53 PM 63.0 °F - 62.1 °F 97% 30.02 in 8.0 mi SSW 5.8 mph - N/A   Clear